| time (UTC) | temp C | wind direction | speed KPH | gust KPH | rain 1hr cm | rain 24hr cm | rain mn cm | humidity % | barometer mb |
| 20260505124509 | 2 | 286 | 16.1 | 25.7 | 0.10 | 0.41 | 0.20 | 94 | 1007.7 |
| 20260505123007 | 2 | 290 | 16.1 | 27.4 | 0.13 | 0.38 | 0.18 | 94 | 1007.4 |
| 20260505121504 | 2 | 311 | 19.3 | 29.0 | 0.15 | 0.38 | 0.18 | 94 | 1007.5 |
| 20260505120114 | 2 | 315 | 19.3 | 27.4 | 0.15 | 0.36 | 0.15 | 93 | 1007.3 |
| 20260505114558 | 3 | 317 | 20.9 | 32.2 | 0.10 | 0.30 | 0.10 | 93 | 1007.1 |
| 20260505113056 | 4 | 317 | 17.7 | 25.7 | 0.05 | 0.25 | 0.05 | 93 | 1006.9 |
| 20260505111551 | 4 | 294 | 11.3 | 25.7 | 0.03 | 0.23 | 0.03 | 93 | 1006.8 |
| 20260505101545 | 5 | 9 | 0.0 | 4.8 | 0.00 | 0.20 | 0.00 | 92 | 1005.8 |
| 20260505100042 | 5 | 288 | 1.6 | 6.4 | 0.00 | 0.20 | 0.00 | 92 | 1005.6 |
| 20260505094540 | 5 | 333 | 1.6 | 8.0 | 0.00 | 0.20 | 0.00 | 92 | 1005.1 |
| 20260505093037 | 6 | 88 | 3.2 | 4.8 | 0.00 | 0.20 | 0.00 | 92 | 1005.5 |
| 20260505091538 | 6 | 88 | 3.2 | 9.7 | 0.00 | 0.20 | 0.00 | 92 | 1005.6 |
| 20260505090036 | 6 | 88 | 4.8 | 9.7 | 0.00 | 0.20 | 0.00 | 92 | 1005.6 |
| 20260505084542 | 6 | 80 | 3.2 | 9.7 | 0.00 | 0.20 | 0.00 | 92 | 1005.5 |
| 20260505083031 | 6 | 106 | 8.0 | 14.5 | 0.00 | 0.20 | 0.00 | 92 | 1005.5 |
| 20260505081528 | 6 | 94 | 6.4 | 12.9 | 0.00 | 0.20 | 0.00 | 92 | 1005.9 |
| 20260505080025 | 6 | 116 | 4.8 | 8.0 | 0.00 | 0.20 | 0.00 | 92 | 1006.1 |
| 20260505074524 | 6 | 151 | 3.2 | 8.0 | 0.00 | 0.20 | 0.00 | 92 | 1006.1 |
| 20260505073033 | 6 | 154 | 6.4 | 12.9 | 0.00 | 0.20 | 0.00 | 92 | 1006.2 |
| 20260505071521 | 6 | 146 | 1.6 | 14.5 | 0.00 | 0.20 | 0.00 | 92 | 1006.4 |
| 20260505070029 | 6 | 150 | 4.8 | 8.0 | 0.00 | 0.20 | 0.00 | 91 | 1006.7 |
| 20260505064515 | 7 | 88 | 0.0 | 0.0 | 0.03 | 0.20 | 0.00 | 92 | 1006.8 |
| 20260505063015 | 7 | 88 | 0.0 | 0.0 | 0.03 | 0.20 | 0.00 | 91 | 1006.9 |
| 20260505061519 | 6 | 88 | 0.0 | 1.6 | 0.05 | 0.20 | 0.00 | 91 | 1006.7 |
| 20260505060010 | 6 | 88 | 0.0 | 4.8 | 0.05 | 0.20 | 0.00 | 91 | 1006.8 |
| 20260505054510 | 7 | 96 | 4.8 | 12.9 | 0.05 | 0.18 | 0.18 | 90 | 1006.8 |
| 20260505053012 | 6 | 267 | 0.0 | 9.7 | 0.08 | 0.18 | 0.18 | 90 | 1006.5 |
| 20260505051513 | 6 | 296 | 6.4 | 17.7 | 0.05 | 0.15 | 0.15 | 90 | 1006.7 |
| 20260505041605 | 7 | 311 | 0.0 | 8.0 | 0.10 | 0.10 | 0.10 | 85 | 1006.6 |
| 20260505040058 | 8 | 261 | 3.2 | 8.0 | 0.05 | 0.05 | 0.05 | 82 | 1006.5 |
| 20260505034554 | 8 | 257 | 4.8 | 16.1 | 0.00 | 0.00 | 0.00 | 77 | 1006.5 |
| 20260505033052 | 10 | 249 | 11.3 | 16.1 | 0.00 | 0.00 | 0.00 | 67 | 1006.0 |
| 20260505031602 | 9 | 248 | 4.8 | 8.0 | 0.00 | 0.00 | 0.00 | 64 | 1005.8 |
| 20260505030050 | 9 | 50 | 0.0 | 0.0 | 0.00 | 0.00 | 0.00 | 65 | 1005.6 |
| 20260505024558 | 9 | 50 | 0.0 | 4.8 | 0.00 | 0.00 | 0.00 | 64 | 1005.6 |
| 20260505023049 | 10 | 301 | 0.0 | 4.8 | 0.00 | 0.00 | 0.00 | 65 | 1005.1 |
| 20260505021553 | 10 | 301 | 1.6 | 3.2 | 0.00 | 0.00 | 0.00 | 65 | 1005.0 |
| 20260505020047 | 10 | 301 | 1.6 | 6.4 | 0.00 | 0.00 | 0.00 | 64 | 1005.1 |
| 20260505014603 | 10 | 304 | 3.2 | 9.7 | 0.00 | 0.00 | 0.00 | 63 | 1004.8 |
| 20260505013049 | 11 | 324 | 11.3 | 29.0 | 0.00 | 0.00 | 0.00 | 60 | 1004.8 |
| 20260505011555 | 11 | 292 | 3.2 | 17.7 | 0.00 | 0.00 | 0.00 | 53 | 1004.7 |
| 20260505010042 | 12 | 338 | 12.9 | 27.4 | 0.00 | 0.00 | 0.00 | 50 | 1004.6 |
| 20260505004543 | 12 | 250 | 4.8 | 11.3 | 0.00 | 0.00 | 0.00 | 45 | 1004.2 |
| 20260505003040 | 12 | 236 | 6.4 | 12.9 | 0.00 | 0.00 | 0.00 | 45 | 1003.9 |
| 20260505001540 | 12 | 137 | 11.3 | 16.1 | 0.00 | 0.00 | 0.00 | 46 | 1003.9 |
| 20260505000050 | 12 | 154 | 12.9 | 24.1 | 0.00 | 0.00 | 0.00 | 45 | 1003.6 |
| 20260504234546 | 12 | 114 | 20.9 | 33.8 | 0.00 | 0.00 | 0.00 | 45 | 1003.6 |
| 20260504233100 | 15 | 355 | 9.7 | 43.5 | 0.00 | 0.00 | 0.00 | 41 | 1003.2 |
| 20260504231538 | 15 | 30 | 6.4 | 27.4 | 0.00 | 0.00 | 0.00 | 33 | 1003.0 |
| 20260504230038 | 16 | 51 | 11.3 | 24.1 | 0.00 | 0.00 | 0.00 | 31 | 1002.1 |
| 20260504224539 | 17 | 360 | 6.4 | 25.7 | 0.00 | 0.00 | 0.00 | 26 | 1001.7 |
| 20260504223053 | 18 | 25 | 6.4 | 14.5 | 0.00 | 0.00 | 0.00 | 26 | 1001.5 |
| 20260504221537 | 18 | 36 | 1.6 | 16.1 | 0.00 | 0.00 | 0.00 | 25 | 1001.6 |
| 20260504220033 | 18 | 355 | 6.4 | 14.5 | 0.00 | 0.00 | 0.00 | 25 | 1001.6 |
| 20260504214532 | 18 | 292 | 8.0 | 17.7 | 0.00 | 0.00 | 0.00 | 24 | 1001.8 |
| 20260504213045 | 19 | 5 | 16.1 | 22.5 | 0.00 | 0.00 | 0.00 | 25 | 1001.8 |
| 20260504211534 | 19 | 346 | 8.0 | 20.9 | 0.00 | 0.00 | 0.00 | 26 | 1001.9 |
| 20260504210030 | 20 | 5 | 12.9 | 24.1 | 0.00 | 0.00 | 0.00 | 23 | 1002.0 |
| 20260504204540 | 21 | 35 | 11.3 | 27.4 | 0.00 | 0.00 | 0.00 | 22 | 1002.1 |
| 20260504203026 | 21 | 49 | 12.9 | 30.6 | 0.00 | 0.00 | 0.00 | 23 | 1002.1 |
| 20260504201527 | 20 | 5 | 4.8 | 25.7 | 0.00 | 0.00 | 0.00 | 24 | 1002.4 |
| 20260504200025 | 20 | 5 | 8.0 | 24.1 | 0.00 | 0.00 | 0.00 | 24 | 1002.5 |
| 20260504194523 | 20 | 40 | 9.7 | 30.6 | 0.00 | 0.00 | 0.00 | 24 | 1002.5 |
| 20260504193025 | 20 | 355 | 11.3 | 27.4 | 0.00 | 0.00 | 0.00 | 23 | 1002.5 |
| 20260504191524 | 20 | 17 | 14.5 | 27.4 | 0.00 | 0.00 | 0.00 | 24 | 1002.2 |
| 20260504190022 | 19 | 9 | 17.7 | 30.6 | 0.00 | 0.00 | 0.00 | 22 | 1002.2 |
| 20260504184521 | 20 | 350 | 4.8 | 16.1 | 0.00 | 0.00 | 0.00 | 21 | 1002.3 |
| 20260504183019 | 21 | 53 | 1.6 | 22.5 | 0.00 | 0.00 | 0.00 | 19 | 1002.5 |
| 20260504181517 | 20 | 334 | 6.4 | 27.4 | 0.00 | 0.00 | 0.00 | 21 | 1002.5 |
| 20260504180017 | 20 | 311 | 3.2 | 25.7 | 0.00 | 0.00 | 0.00 | 22 | 1002.7 |
| 20260504174512 | 19 | 300 | 3.2 | 12.9 | 0.00 | 0.00 | 0.00 | 22 | 1003.2 |
| 20260504173008 | 19 | 306 | 16.1 | 27.4 | 0.00 | 0.00 | 0.00 | 22 | 1003.6 |
| 20260504171506 | 19 | 270 | 16.1 | 29.0 | 0.00 | 0.00 | 0.00 | 22 | 1003.9 |
| 20260504160104 | 18 | 302 | 12.9 | 25.7 | 0.00 | 0.00 | 0.00 | 22 | 1004.3 |